Miscellaneous Local Product
Issued by NWS North Platte, NE

Home | Current Version | Previous Version | Graphics & Text | Print | Product List | Glossary On
Versions: 1 2 3 4 5 6 7 8 9 10 11 12 13 14 15 16 17 18 19 20 21 22 23 24 25 26 27 28 29 30 31 32 33 34 35 36 37 38 39 40 41 42 43 44 45 46 47 48 49 50
000
AXUS43 KLBF 210910
MISLBF


WESTERN AND NORTH CENTRAL NEBRASKA HOURLY WEATHER ROUNDUP
NATIONAL WEATHER SERVICE NORTH PLATTE NE
400 AM CDT SUN SEP 21 2014

***STATIONS NOT REPORTING VARIABLES SUCH AS SKY/WEATHER OR
PRESSURE ARE PROVIDED BY THE NEBRASKA DEPARTMENT OF
ROADS...RAWS...AND APRS NETWORKS...AND ARE NOT UNDER
NATIONAL WEATHER SERVICE QUALITY CONTROL***

...OBSERVATIONS IN AND NEAR THE EASTERN PANHANDLE OF NEBRASKA...

CITY           SKY/WX    TMP DP  RH WIND       PRES   REMARKS
PINE RIDGE     CLEAR     37  36  96 CALM      30.31S
CHADRON        CLEAR     40  38  93 SW5       30.32S
ALLIANCE       PTCLDY    45  40  82 CALM      30.33S
SIDNEY         CLOUDY    58  44  60 N5        30.35R
WHITECLAY        N/A     37  34  89 SE6         N/A  WCI  32
RUSHVILLE        N/A     40  36  87 SE6         N/A
LISCO            N/A     55  46  70 CALM        N/A
BIG SPRINGS      N/A     54  50  86 CALM        N/A
$$

...OBSERVATIONS IN NORTH CENTRAL NEBRASKA...

CITY           SKY/WX    TMP DP  RH WIND       PRES   REMARKS
VALENTINE      CLEAR     46  39  76 NW8       30.26R
THEDFORD       CLEAR     47  41  79 W5        30.27S
AINSWORTH      CLEAR     46  39  77 W7        30.24R
O`NEILL        CLEAR     50  43  78 W7        30.19S
ORD            CLEAR     48  42  80 NW3       30.19R
BROKEN BOW     CLEAR     53  41  63 N9        30.22R
SPRINGVIEW       N/A     46  40  81 CALM        N/A
ROSE             N/A     51  42  73 W7          N/A
NEWPORT          N/A     46  41  82 W8          N/A
COMSTOCK         N/A     57  41  55 CALM        N/A
$$

...OBSERVATIONS IN SOUTHWEST NEBRASKA AND FAR NORTHEAST COLORADO...

CITY           SKY/WX    TMP DP  RH WIND       PRES   REMARKS
WRAY           FAIR      52  45  78 NW3       30.30S
HOLYOKE        FAIR      54  46  76 NW3       30.30S
IMPERIAL       MOCLDY    55  45  68 NW5       30.28S
OGALLALA       CLOUDY    53  50  90 CALM      30.29S
NORTH PLATTE   CLEAR     45  42  89 NW3       30.26R
MCCOOK         CLEAR     52  46  80 NW7       30.24S
LEXINGTON      CLEAR     48  45  90 NW7       30.22S
PAXTON           N/A     49  44  84 CALM        N/A
SUTHERLAND       N/A     45  42  88 W6          N/A
BRADY            N/A     48  42  80 CALM        N/A
GOTHENBURG       N/A     54  42  62 W5          N/A
CALLAWAY         N/A     54  44  67 NW6         N/A
$$

...SOME WEATHER OBSERVATIONS FROM AROUND THE REGION...

CITY           SKY/WX    TMP DP  RH WIND       PRES   REMARKS
DENVER         CLOUDY    60  46  59 E12       30.34F
LARAMIE        CLEAR     46  36  68 S7        30.43S
CHEYENNE       CLOUDY    56  38  50 SE7       30.41S
SCOTTSBLUFF    MOCLDY    52  43  71 CALM      30.34R
RAPID CITY     CLEAR     49  37  63 NW9       30.31S
PIERRE         CLEAR     50  43  77 NW9       30.19R
WINNER         FAIR      50  38  63 W10       30.22R
SIOUX FALLS    CLEAR     53  43  68 W9        30.08R
OMAHA          CLEAR     57  50  77 NW6       30.09R
GRAND ISLAND   CLEAR     52  46  80 W6        30.18R
KANSAS CITY    CLEAR     61  53  75 N6        30.08R
WICHITA        MOCLDY    74  68  81 NE3       30.07R
HAYS           MOCLDY    64  46  52 NE10      30.18R
LIBERAL        CLEAR     70  63  78 NE9       30.15S
GOODLAND       PTCLDY    53  47  79 N3        30.28S
$$



USA.gov is the U.S. government's official web portal to all federal, state and local government web resources and services.